Location: ČR
(50.0000°N, 15.0000°E)
Time: 13:26:21
(UTC+02:00)

CAS-6 - Visible Passes

Search period start: 11 May 2026 00:00
Search period end: 21 May 2026 00:00
Orbit: 600 x 618 km, 97.8° (Epoch: 11 May)

Date Brightness Start Highest point End Pass type
(mag) Time Alt. Az. Time Alt. Az. Time Alt. Az.
11 May ? 22:06:03 18° SE 22:08:52 42° ENE 22:12:57 10° N visible
11 May ? 23:43:00 18° SW 23:44:56 24° W 23:48:28 10° NW visible
12 May ? 22:20:01 21° SE 22:22:41 56° ENE 22:26:55 10° N visible
12 May ? 23:56:56 14° WSW 23:58:56 18° W 00:01:55 10° NW visible
13 May ? 22:33:57 24° SSE 22:36:30 77° ENE 22:40:50 10° N visible
14 May ? 00:10:53 10° WSW 00:12:57 13° W 00:15:06 10° WNW visible
14 May ? 21:12:34 10° E 21:15:02 15° ENE 21:17:29 10° NNE visible
14 May ? 22:47:54 25° S 22:50:22 79° WSW 22:54:43 10° NNW visible
15 May ? 21:25:39 10° ESE 21:28:43 19° ENE 21:31:47 10° NNE visible
15 May ? 23:01:51 24° S 23:04:15 57° W 23:08:31 10° NNW visible
16 May ? 21:38:56 10° ESE 21:42:27 25° ENE 21:45:58 10° N visible
16 May ? 23:15:47 22° SSW 23:18:10 42° W 23:22:16 10° NNW visible
17 May ? 21:52:48 12° SE 21:56:11 32° ENE 22:00:03 10° N visible
17 May ? 23:29:44 19° SW 23:32:06 31° W 23:35:57 10° NNW visible
18 May ? 22:06:45 15° SE 22:09:58 43° ENE 22:14:03 10° N visible
18 May ? 23:43:41 15° SW 23:46:03 23° W 23:49:32 10° NW visible
19 May ? 22:20:42 18° SE 22:23:46 58° ENE 22:28:01 10° N visible
19 May ? 23:57:38 12° SW 00:00:03 17° W 00:02:57 10° NW visible
20 May ? 22:34:39 20° SSE 22:37:35 79° ENE 22:41:55 10° NNW visible
